Location: Lucerne Valley
(34.4439°N, 116.9669°E)
Time: 20:34:56
(UTC-07:00)

Tiangong 2 - Pass Details

Date: 07 October 2017
Orbit: 388 x 392 km, 42.8° (Epoch: 19 October)

Event Time Altitude Azimuth Distance (km) Brightness Sun altitude
Exits shadow 12:59:37 13° 112° (ESE) 1,226 4.2 -27.9°
Drops below altitude 10° 13:00:26 10° 99° (E) 1,415 4.7 -27.7°
Sets 13:03:01 0° 77° (ENE) 2,274 6.3 -27.2°
